Regional Weather Roundup
Issued by NWS

Home | Current Version | Previous Version | Graphics & Text | Print | Product List | Glossary On
Versions: 1 2 3 4 5 6 7 8 9 10 11 12 13 14 15 16 17 18 19 20 21 22 23 24 25 26 27
000
ASUS45 KBOI 201410
RWRID

IDAHO REGIONAL WEATHER ROUNDUP
NATIONAL WEATHER SERVICE BOISE ID
800 AM MDT FRI OCT 20 2017

NOTE: "FAIR" INDICATES FEW OR NO CLOUDS BELOW 12000 FEET
WITH NO SIGNIFICANT WEATHER AND/OR OBSTRUCTIONS TO VISIBILITY

IDZ012-014-201500-
SOUTHWEST IDAHO


CITY           SKY/WX    TMP DP  RH WIND       PRES   REMARKS
BOISE          LGT RAIN  43  32  65 NW10      29.66R
CALDWELL       RAIN      44  40  85 W16       29.70R
MOUNTAIN HOME  RAIN      42  42  99 W22G28    29.68R
$$

IDZ016-017-201500-
SOUTHCENTRAL IDAHO


CITY           SKY/WX    TMP DP  RH WIND       PRES   REMARKS
BURLEY         LGT RAIN  48  32  53 W25G45    29.56R
JEROME         CLOUDY    43  36  76 SW30G43   29.60R HAZE
TWIN FALLS     LGT RAIN  43  37  79 W32G39    29.61R
$$

IDZ019>023-201500-
SOUTHEAST IDAHO


CITY           SKY/WX    TMP DP  RH WIND       PRES   REMARKS
IDAHO FALLS    CLOUDY    47  34  60 SW9       29.50F
POCATELLO      PTCLDY    58  31  35 W23G40    29.52R
REXBURG        CLOUDY    38  26  62 W3        29.50F
$$

IDZ006-010-011-018-031-032-201500-
CENTRAL IDAHO MOUNTAINS


CITY           SKY/WX    TMP DP  RH WIND       PRES   REMARKS
MCCALL         LGT SNOW  33  32  96 SW5       29.55R FOG     WCI  29
HAILEY         MOCLDY    45  34  65 CALM      29.51F
STANLEY          N/A     44  32  62 SE9G22    29.47F
SALMON         CLOUDY    36  24  62 N3        29.35F
CHALLIS        CLOUDY    52  32  46 S18       29.42F
$$

IDZ002-004-006-007-026-201500-
NORTHERN IDAHO


CITY           SKY/WX    TMP DP  RH WIND       PRES   REMARKS
LEWISTON       LGT RAIN  47  42  83 S6        29.59R
LOWELL           N/A     42  41  96 CALM      29.64R
COEUR D`ALENE  LGT RAIN  42  40  92 S9        29.53S
MULLAN PASS    SNOW      29  27  92 VRB5      29.48S VSB 1/2 WCI  24
$$




USA.gov is the U.S. government's official web portal to all federal, state and local government web resources and services.